Flag for Germany Weather past 2 weeks in Schleswig, Schleswig-Holstein, Germany

Now
77 °F

Passing clouds.


Feels Like: 78 °F
Forecast: 61 / 80 °F
Wind: 14 mph from East

Location: Schleswig-Jagel

Current Time: Jul 23, 2014 at 1:30:02 PM

Latest Report: Jul 23, 2014 at 11:20 AM


Visibility: N/A

Pressure: 30.21 "Hg

Humidity: 39%

Dew point: 50 °F

Location of SchleswigLocation

Historic Weather in Schleswig — Graph

°F

Schleswig temperature yesterday

Maximum temperature yesterday: 82 °F (at 3:20 PM)
Minimum temperature yesterday: 63 °F (at 2:20 AM)
Average temperature yesterday: 73 °F

Past Weeks' High & Low Weather Summary

 TemperatureHumidityPressure
High86 °F (Jul 19, 1:20 PM)100% (Jul 8, 1:20 PM)30.21 "Hg (Jul 8, 1:20 PM)
Low48 °F (Jul 17, 5:20 AM)31% (Jul 12, 4:20 PM)29.59 "Hg (Jul 14, 2:20 AM)
Average68 °F71%29.96 "Hg
* Reported Jul 8 11:20 AM — Jul 23 11:20 AM, Schleswig, Weather by CustomWeather, © 2014

Note: Actual official high and low records may vary slightly from our data, if they occured in-between our weather recording intervals... More about our weather records

Advertising

Schleswig weather history for previous 24 hours

 ConditionsComfort  
Time TempWeatherWind HumidityBarometerVisibility
11:20 AM
Jul 23
77 °FPassing clouds.14 mph39%30.21 "HgN/A
10:20 AM75 °FPassing clouds.12 mph50%30.21 "HgN/A
9:20 AM73 °FPassing clouds.13 mph53%30.21 "HgN/A
7:20 AM66 °FPassing clouds.9 mph83%30.21 "HgN/A
6:20 AM61 °FScattered clouds.6 mph94%30.21 "HgN/A
5:20 AM59 °FCool.3 mph94%30.21 "Hg6 mi
4:20 AM61 °FCool.1 mph88%30.21 "Hg6 mi
3:20 AM61 °FCool.7 mph83%30.21 "Hg4 mi
2:20 AM63 °FMild.7 mph83%30.21 "Hg4 mi
1:20 AM63 °FMild.6 mph88%30.21 "Hg4 mi
6:20 PM
Jul 22
79 °FWarm.16 mph51%30.15 "Hg5 mi
5:20 PM82 °FWarm.16 mph42%30.15 "Hg5 mi
4:20 PM82 °FPartly sunny.18 mph37%30.15 "HgN/A
3:20 PM82 °FPartly sunny.16 mph35%30.15 "HgN/A
2:20 PM81 °FPartly sunny.16 mph34%30.15 "HgN/A
1:20 PM81 °FPartly sunny.20 mph34%30.15 "HgN/A
Weather by CustomWeather, © 2014

See weather overviewHow to use our weather pages